Theta_e
330 332 336 338 341 343 343 343 346 348 350 351 353 353 354 354 352 347 350 351 350 347 344 342 340 338 338 337 338 339 339 337 336
329 330 334 337 341 343 344 345 347 349 351 353 354 353 353 352 351 351 350 353 350 344 342 338 337 337 335 335 336 336 337 334 334
331 334 334 337 341 343 344 345 348 350 352 353 355 353 353 352 352 349 349 344 343 342 339 337 334 332 332 333 334 334 335 333 334
331 333 334 337 340 344 345 345 346 347 350 353 353 354 354 352 347 343 342 341 340 339 336 333 329 329 330 332 332 333 333 331 328
332 334 336 339 341 343 343 343 345 347 349 350 352 352 350 346 343 340 337 337 337 336 332 327 324 327 329 330 331 332 331 328 326
331 334 336 339 341 342 342 343 345 346 347 348 350 348 345 341 339 336 334 334 333 331 325 322 321 327 329 328 327 325 327 327 322
328 333 336 338 340 341 343 346 346 346 347 349 346 345 343 339 335 334 332 333 331 326 322 321 323 327 328 327 325 324 324 324 322
327 331 334 338 338 340 344 346 347 347 348 347 343 337 336 337 336 335 331 330 326 321 319 320 324 325 326 326 325 320 323 322 322
328 330 334 338 341 342 345 346 345 345 344 339 336 333 332 333 332 329 327 325 321 320 317 317 321 323 323 324 323 321 319 320 319
329 332 335 339 343 344 344 344 345 341 341 340 339 337 331 328 328 326 323 322 320 318 315 315 318 319 320 321 324 322 323 320 320
326 335 337 342 344 345 346 346 343 343 343 342 338 334 331 328 327 323 322 320 318 315 314 316 316 317 318 319 320 319 324 324 325
334 334 341 344 347 347 347 342 344 343 343 340 338 333 330 328 327 325 323 318 315 316 317 318 318 318 319 318 319 316 317 325 326
335 339 343 345 347 346 341 340 343 344 341 339 335 332 330 329 328 326 322 320 318 320 321 321 319 320 320 318 319 313 314 320 322
341 341 345 348 346 340 339 340 344 343 341 336 334 332 329 329 329 327 325 323 322 322 322 321 321 321 322 323 324 322 314 313 320
343 344 343 344 340 339 338 341 344 340 332 331 330 330 327 328 327 326 324 323 322 322 322 321 321 323 322 323 327 318 315 313 312
336 338 337 340 338 334 335 341 335 327 325 325 325 327 328 326 326 325 323 321 321 319 322 320 320 320 319 320 324 326 315 314 313
336 336 335 335 332 331 331 331 332 331 328 326 325 324 327 326 325 322 321 320 320 318 319 319 320 320 320 320 323 321 324 324 323
336 335 334 333 330 329 329 333 332 330 326 325 325 324 326 325 323 320 319 320 319 319 323 320 321 321 322 321 319 320 317 319 325
338 336 337 338 337 336 337 339 335 329 328 328 325 323 322 322 320 319 319 318 319 310 310 308 306 306 315 322 310 305 304 302 303
335 341 340 340 337 338 338 333 330 329 330 329 326 323 322 321 320 319 318 318 318 317 314 306 303 301 302 301 306 300 298 298 299
Wind_Speed
12 18 19 20 20 17 16 17 17 16 16 14 14 14 13 11 9 6 7 8 7 6 5 5 6 6 5 5 4 4 4 4 4
9 14 19 20 18 16 15 17 18 18 16 14 14 14 12 12 10 9 7 8 8 6 7 7 7 6 5 5 5 5 5 5 5
10 13 16 15 15 16 15 15 14 15 16 16 15 14 13 12 10 8 8 9 10 9 8 8 7 6 5 5 5 5 5 5 6
10 13 15 16 15 14 13 14 15 16 16 16 15 14 13 13 11 11 10 9 10 9 9 7 7 6 5 6 6 5 6 7 6
10 12 14 15 15 15 15 16 16 17 16 15 14 12 11 11 11 11 11 10 10 10 9 6 6 7 7 7 7 6 6 6 6
7 11 13 14 15 16 17 17 17 17 15 15 14 14 13 12 12 11 10 11 10 9 9 8 6 7 8 7 7 6 6 7 7
8 13 13 14 15 15 16 16 17 16 16 15 15 13 11 12 12 11 10 10 10 9 8 8 8 7 7 7 6 7 8 8 7
8 14 16 16 16 16 16 16 17 17 18 17 16 14 12 13 13 11 11 10 10 9 7 6 7 8 7 6 7 6 7 7 7
12 13 15 15 14 16 18 19 19 18 19 19 20 20 23 19 16 15 13 12 11 10 8 8 7 7 7 7 4 9 7 6 6
12 13 13 17 18 18 19 22 20 21 20 19 17 16 14 17 18 16 12 12 11 9 10 8 7 7 6 7 5 6 10 8 5
11 12 15 16 17 19 19 19 21 20 20 18 17 16 14 14 14 15 14 12 10 10 9 9 8 7 6 5 4 5 9 10 6
12 12 13 14 15 17 18 18 21 21 19 17 16 16 17 17 16 16 16 14 13 11 10 9 8 7 7 5 5 5 5 8 6
14 9 10 13 15 14 13 15 19 19 19 19 16 16 16 15 15 17 17 14 13 11 10 9 7 8 7 6 6 5 6 7 4
10 4 7 10 14 14 15 16 20 18 14 11 13 16 15 18 13 14 15 15 12 11 11 9 9 8 7 7 7 7 7 8 5
9 5 8 12 12 12 13 16 17 13 10 10 7 8 12 13 14 11 11 14 12 11 10 10 9 7 7 6 6 8 10 10 10
6 7 6 7 8 10 10 11 13 17 15 16 15 10 13 13 12 10 12 13 11 10 10 9 8 7 7 6 5 6 11 10 12
4 6 7 9 10 11 11 12 14 15 12 13 13 11 13 11 12 11 11 10 10 10 10 9 8 7 6 5 5 5 6 8 9
5 6 8 10 10 12 13 14 14 16 16 17 23 14 11 12 11 12 11 10 9 9 9 8 8 8 6 6 6 6 5 6 7
5 6 8 8 11 13 14 15 14 12 12 15 15 13 11 11 11 10 10 10 9 3 2 8 6 2 5 5 9 5 7 9 8
7 7 7 8 9 11 12 13 13 16 15 16 16 15 13 11 9 10 10 11 10 10 7 7 9 9 10 11 12 5 10 8 5
Wind_Direction
218 209 208 205 204 196 189 183 180 178 182 184 186 185 188 183 184 202 198 191 169 171 154 135 133 115 100 100 100 100 110 113 100
198 199 202 204 198 196 189 185 183 180 177 179 186 181 179 178 182 192 181 162 153 143 136 132 125 122 115 113 116 115 115 103 100
194 192 195 196 193 189 189 187 178 174 177 177 177 177 179 178 181 170 158 150 141 145 134 126 127 121 121 111 104 105 110 114 100
201 188 191 189 189 187 183 178 174 173 174 168 170 173 172 165 158 148 146 141 138 135 128 131 123 120 117 108 102 106 108 101 101
211 197 188 185 179 172 173 176 176 173 165 163 165 158 158 151 142 142 139 136 131 134 125 123 124 130 118 113 110 112 122 113 102
218 200 187 179 178 178 178 177 174 166 160 160 155 150 151 143 141 138 135 135 134 131 131 131 133 132 130 130 121 121 114 109 100
208 189 195 190 184 182 180 175 169 160 155 148 145 141 143 144 146 146 144 139 138 142 138 134 136 135 130 132 123 112 117 121 118
216 193 189 193 188 177 172 167 165 160 152 150 136 140 147 157 147 142 134 139 134 131 131 125 131 136 136 141 141 135 136 131 117
240 210 193 186 186 173 170 168 163 156 153 155 161 178 154 154 151 143 145 147 142 138 135 143 151 155 152 154 163 140 148 137 117
264 233 199 183 181 180 175 173 164 163 161 161 161 165 161 151 146 144 143 143 146 149 150 154 159 163 167 154 156 178 174 160 139
278 239 205 193 185 181 181 171 170 164 162 163 165 164 161 140 147 134 139 151 157 153 151 156 168 170 175 156 147 146 177 175 172
329 264 222 202 191 177 174 173 171 165 161 157 165 167 162 151 158 151 150 157 164 157 156 164 170 169 166 164 138 133 157 185 187
322 280 215 195 180 170 158 170 172 166 164 164 168 162 162 161 168 154 152 158 169 162 170 166 173 168 168 148 157 169 172 197 177
331 280 186 168 164 168 168 168 173 171 160 157 155 160 165 157 169 162 153 160 167 164 168 165 180 178 175 188 193 183 193 209 198
18 78 135 161 164 166 164 168 164 137 117 96 110 155 148 154 156 175 158 157 164 166 166 171 179 191 203 208 217 216 196 207 236
51 102 127 153 142 131 142 156 129 122 129 130 142 180 170 163 161 178 158 158 166 171 175 176 187 206 217 221 213 224 204 207 220
96 119 118 115 123 132 130 130 140 142 163 150 129 167 164 155 175 173 163 167 174 187 189 184 180 196 214 225 238 240 234 217 215
140 134 138 139 145 152 150 150 151 163 170 165 140 162 161 168 176 177 168 181 186 191 196 197 186 197 208 225 228 232 213 215 211
154 165 172 183 181 181 183 178 167 162 163 156 142 149 153 176 170 178 174 178 181 227 232 173 214 221 234 216 243 281 222 218 237
194 198 204 214 201 198 187 175 163 158 166 153 151 148 165 169 174 171 180 187 192 191 197 212 217 220 230 231 259 260 237 228 228